www.pogodaiklimat.ru

Архив погоды в Вене (Австрия)

Время
(UTC), дата
22 16.05
23 16.05
00 17.05
01 17.05
02 17.05
03 17.05
04 17.05
05 17.05
06 17.05
07 17.05
08 17.05
09 17.05
10 17.05
11 17.05
12 17.05
13 17.05
14 17.05
15 17.05
16 17.05
17 17.05
18 17.05
19 17.05
20 17.05
21 17.05
22 17.05
23 17.05
00 18.05
01 18.05
02 18.05
03 18.05
04 18.05
05 18.05
06 18.05
07 18.05
08 18.05
09 18.05
10 18.05
11 18.05
12 18.05
13 18.05
14 18.05
15 18.05
16 18.05
17 18.05
18 18.05
19 18.05
20 18.05
21 18.05
22 18.05
23 18.05
00 19.05
01 19.05
02 19.05
03 19.05
04 19.05
05 19.05
06 19.05
07 19.05
08 19.05
09 19.05
10 19.05
11 19.05
12 19.05
13 19.05
14 19.05
15 19.05
16 19.05
17 19.05
18 19.05
19 19.05
20 19.05
21 19.05
22 19.05
23 19.05
00 20.05
01 20.05
02 20.05
03 20.05
04 20.05
05 20.05
06 20.05
07 20.05
08 20.05
09 20.05
10 20.05
11 20.05
12 20.05
13 20.05
14 20.05
15 20.05
16 20.05
17 20.05
18 20.05
19 20.05
20 20.05
21 20.05
22 20.05
23 20.05
00 21.05
01 21.05
02 21.05
03 21.05
04 21.05
05 21.05
06 21.05
07 21.05
08 21.05
09 21.05
10 21.05
11 21.05
12 21.05
13 21.05
14 21.05
15 21.05
16 21.05
17 21.05
18 21.05
19 21.05
20 21.05
21 21.05
22 21.05
23 21.05
00 22.05
01 22.05
02 22.05
03 22.05
04 22.05
05 22.05
06 22.05
07 22.05
08 22.05
09 22.05
10 22.05
11 22.05
12 22.05
13 22.05
14 22.05
15 22.05
16 22.05
17 22.05
18 22.05
19 22.05
20 22.05
21 22.05
22 22.05
23 22.05
00 23.05
01 23.05
02 23.05
03 23.05
04 23.05
05 23.05
06 23.05
07 23.05
08 23.05
09 23.05
10 23.05
11 23.05
12 23.05
13 23.05
14 23.05
15 23.05
16 23.05
17 23.05
18 23.05
19 23.05
20 23.05
Ветер
(напр.,м/с)
Видим. Явления Облачность Т
(С)
Тd
(С)
f
(%)
Тe
(С)
Тes
(С)
Комфортность P
(гПа)
Po
(гПа)
Тmin
(С)
Tmax
(С)
R
(мм)
R24
(мм)
S
(см)
ЮВ 4 н/о н/о +16.2 +8.6 61 +16 +16 тепло 1009.7 985.4
В 4 н/о н/о +16.3 +8.3 59 +16 +16 тепло 1009.1 984.8
В 6 30 км 8/0
[Ac trans]
+16.3 +8.5 60 +15 +15 тепло 1008.6 984.3
В 4 н/о н/о +15.8 +8.6 62 +15 +15 тепло 1008.1 983.8
ЮВ 7 {14} н/о в посл. час осадки н/о +14.7 +9.5 71 +13 +13 тепло 1008.1 983.7 0.0
ЮВ 4 {14} н/о осадки н/о +12.9 +11.0 88 +11 +11 по сезону 1008.1 983.5 2
В 4 н/о н/о +12.6 +11.9 95 +11 +11 тепло 1007.9 983.3 6
ЮВ 7 2600 м слаб. дождь 10/10 180 м
[Frnb]
+12.1 +11.5 96 +9 +9 тепло 1007.9 983.3 2
ЮВ 5 {14} 6000 м слаб. дождь 10/10 210 м
[Frnb]
+11.8 +11.2 96 +9 +9 по сезону 1008.4 983.7 +11.8 +17.6 11
ЮВ 6 15 км в посл. час дождь 10/10 270 м
[Sc]
+11.8 +11.0 95 +9 +9 по сезону 1008.7 984.0 0.2
ЮВ 4 18 км 10/10 270 м
[Sc]
+12.2 +11.2 94 +10 +10 тепло 1008.6 984.0
ЮВ 6 18 км {дождь} 10/10 240 м
[Sc]
+12.8 +11.5 92 +10 +10 по сезону 1008.9 984.3 0.2
ЮВ 5 14 км 10/10 240 м
[Sc]
+13.1 +11.8 92 +11 +11 по сезону 1009.2 984.6
ЮВ 4 14 км 10/10 240 м
[Sc]
+13.4 +11.9 91 +12 +12 тепло 1009.4 984.9
В 3 12 км {дождь} 10/10 210 м
[Sc]
+13.6 +12.3 92 +12 +12 прохладно 1009.7 985.2 0.2
В 2 6000 м дождь 10/10 180 м
[Sc]
+12.7 +11.7 94 +12 +12 прохладно 1010.6 986.0 3
В 2 10 км слаб. дождь 10/10 180 м
[Sc]
+13.4 +12.6 95 +13 +13 по сезону 1010.8 986.2 2
В 2 10 км слаб. дождь 10/10 210 м
[Sc]
+13.4 +12.4 94 +13 +13 по сезону 1011.4 986.8 5
СВ 1 10 км в посл. час дождь 10/10 210 м
[Sc]
+14.0 +12.5 91 +14 +14 по сезону 1011.3 986.8 0.0
ЮВ 2 3000 м в посл. час ливневой дождь 9/8 210 м
[Sc Ac trans]
+14.1 +12.8 92 +14 +14 по сезону 1011.5 987.0 0.0
В 2 3000 м {ливн. дождь, дождь} 10/9 210 м
[Sc Ac trans]
+13.8 +12.7 93 +13 +13 по сезону 1012.2 987.6 +11.7 +14.3 5
В 2 н/о н/о +13.6 +12.6 94 +13 +13 по сезону 1012.6 988.0
В 2 3000 м 10/10 210 м
[Sc]
+13.3 +12.3 94 +12 +12 по сезону 1013.3 988.7
ЮВ 3 3500 м 9/9 270 м
[Sc]
+12.8 +11.7 93 +11 +11 по сезону 1013.2 988.5
Ю 1 н/о н/о +12.4 +11.5 94 +12 +12 тепло 1013.4 988.7
Ю 2 н/о н/о +12.4 +11.5 94 +11 +11 тепло 1013.5 988.8
ЮЗ 2 3000 м 9/9 210 м
[Sc]
+12.3 +11.3 94 +11 +11 тепло 1013.4 988.7
ЮЗ 1 н/о н/о +12.3 +11.5 95 +12 +12 тепло 1013.4 988.7
ЮВ 2 н/о н/о +12.4 +11.6 95 +11 +11 тепло 1013.5 988.8
Ю 2 н/о н/о +11.4 +10.5 94 +10 +10 по сезону 1013.9 989.1
ЮЗ 3 н/о н/о +11.5 +10.6 94 +10 +10 тепло 1014.1 989.3
Ю 3 4100 м дымка 10/10 150 м
[St]
+11.9 +11.0 94 +10 +10 тепло 1014.3 989.5
Ю 2 10 км 10/10 240 м
[St]
+12.3 +10.9 91 +11 +11 тепло 1014.7 989.9 +11.3 +13.8
ЮВ 2 18 км 10/10 330 м
[Sc]
+13.3 +11.5 89 +13 +13 тепло 1014.8 990.1
ЮВ 3 18 км 10/10 400 м
[Sc]
+13.9 +11.2 84 +13 +13 тепло 1014.7 990.1
ЮВ 2 20 км 9/9 480 м
[Sc]
+15.2 +11.2 77 +15 +17 тепло 1014.7 990.2
В 3 25 км 9/9 570 м
[Sc]
+16.8 +11.9 73 +17 +18 тепло 1014.4 990.0
Ю 3 40 км 9/9 700 м
[Sc]
+18.2 +13.0 72 +19 +20 тепло 1013.8 989.6
ЮВ 4 45 км 9/9 750 м
[Sc]
+18.4 +12.1 67 +19 +20 тепло 1013.5 989.3
Ю 4 50 км 8/6 900 м
[Cu hum Ac trans]
+19.9 +13.1 65 +22 +24 комфорт 1013.1 989.0
ЮВ 4 50 км 8/1 900 м
[Cu Sc Ac As]
+20.6 +13.0 62 +23 +26 комфорт 1012.4 988.4
ЮВ 3 50 км 6/1 900 м
[Cu med, cong Ac As]
+20.7 +13.1 62 +23 +27 комфорт 1011.9 987.9
ЮВ 4 50 км 4/1 1200 м
[Cu hum Ac trans]
+19.7 +12.4 63 +21 +23 комфорт 1011.7 987.6
Ю 3 55 км 6/0
[Ac trans]
+19.4 +13.1 67 +21 +22 комфорт 1011.7 987.6
ЮВ 2 50 км 8/1 1500 м
[Cu med, cong Ac trans]
+18.8 +13.4 71 +20 +20 тепло 1011.4 987.3 +12.3 +21.1
Ю 3 50 км 6/0
[Ac trans]
+18.2 +13.2 73 +19 +19 тепло 1011.4 987.2
Ю 2 40 км 9/0
[Ac trans]
+17.9 +12.5 71 +18 +18 тепло 1011.3 987.1
ЮЗ 1 40 км 9/0
[Ac As]
+16.7 +12.1 74 +18 +18 тепло 1011.3 987.0
ЮЗ 2 н/о н/о +16.3 +12.4 78 +16 +16 тепло 1011.1 986.8
Ю 1 н/о н/о +15.9 +12.8 82 +17 +17 тепло 1011.0 986.6
В 1 40 км 9/0
[Ac As]
+15.5 +12.8 84 +16 +16 тепло 1010.5 986.1
В 2 н/о н/о +15.1 +12.9 87 +15 +15 тепло 1010.2 985.8
В 2 н/о н/о +14.1 +12.8 92 +14 +14 тепло 1010.1 985.6
штиль 0 н/о н/о +13.3 +12.2 93 +13 +13 тепло 1010.4 985.8
ЮЗ 2 н/о н/о +13.6 +12.0 90 +13 +13 тепло 1011.5 986.9
З 2 35 км 3/1 900 м
[Cu hum Ac trans]
+15.6 +10.6 72 +16 +17 тепло 1011.5 987.1
СЗ 2 35 км 4/3 900 м
[Sc]
+16.8 +10.6 67 +17 +20 тепло 1012.1 987.8 +13.1 +18.9
35 км н/о +17.9 +10.5 62 +18 +21 тепло 1012.2 988.0
З 4 35 км 4/4 900 м
[Sc]
+19.2 +10.7 58 +20 +25 тепло 1012.2 988.1
СЗ 4 50 км 5/1 1200 м
[Cu hum]
+20.6 +10.7 53 +22 +29 комфорт 1012.3 988.3
СЗ 4 50 км 5/4 1320 м
[Sc diur, vesp]
+21.2 +10.4 50 +23 +29 комфорт 1012.2 988.2
С 3 60 км 6/5 1320 м
[Sc diur, vesp]
+21.8 +10.0 47 +23 +30 комфорт 1011.5 987.6
СВ 2 60 км 6/6 1500 м
[Sc diur, vesp]
+21.9 +10.4 48 +24 +30 комфорт 1011.3 987.4
СВ 3 60 км 5/5 1500 м
[Sc diur, vesp]
+22.6 +10.4 46 +24 +30 комфорт 1010.9 987.1
СВ 3 60 км 4/3 1500 м
[Cu med, cong Ci ing]
+23.1 +9.8 43 +25 +31 комфорт 1010.3 986.5
С 2 60 км 4/1 1500 м
[Cu med, cong Ci ing]
+23.6 +9.2 40 +24 +30 комфорт 1009.7 986.0
В 2 60 км 4/1 1200 м
[Sc diur, vesp Ac trans Ci ing]
+23.7 +11.1 45 +25 +28 комфорт 1009.2 985.5
Ю 2 60 км 3/1 1200 м
[Cu Sc Ac trans Ci ing]
+22.0 +10.5 48 +24 +25 комфорт 1009.6 985.7
Ю 2 50 км 4/1 1200 м
[Cu Sc Ac trans Ci ing]
+21.2 +10.1 49 +23 +23 комфорт 1009.7 985.8 +16.8 +24.1
Ю 2 60 км 4/1 1200 м
[Cu Sc Ac trans Ci fib]
+19.8 +11.3 58 +22 +22 комфорт 1009.7 985.7
Ю 2 40 км 9/0
[Ac As]
+19.9 +11.6 59 +22 +22 комфорт 1010.1 986.1
Ю 2 40 км 9/0
[Ac As]
+19.1 +12.3 65 +21 +21 комфорт 1010.3 986.2
З 2 н/о н/о +17.1 +12.6 75 +17 +17 тепло 1010.5 986.2
З 1 н/о н/о +17.1 +13.0 77 +18 +18 тепло 1010.6 986.3
С 2 50 км в посл. час дождь 9/0
[Ac As]
+16.8 +12.9 78 +17 +17 тепло 1010.6 986.3 0.0
С 2 н/о в посл. час осадки н/о +16.5 +14.0 85 +17 +17 тепло 1011.4 987.1 0.3
С 4 н/о ливневой дождь н/о +15.4 +13.5 88 +14 +14 тепло 1012.0 987.6 0.1
ЮЗ 1 н/о н/о +14.7 +13.1 90 +15 +15 тепло 1012.2 987.7 0.4
СЗ 1 н/о н/о +14.8 +13.3 91 +15 +15 тепло 1012.2 987.7
З 3 35 км 8/3 1500 м
[Sc Ac As]
+14.8 +13.3 91 +14 +14 тепло 1012.1 987.6
СВ 2 30 км {ливн. дождь} 8/1 1440 м
[Cu med, cong Ac As Ci fib]
+16.2 +13.8 86 +16 +19 тепло 1012.5 988.1 +14.4 +21.1 0.4
СВ 2 30 км 5/3 450 м
[Cu med, cong Ac trans Ci fib]
+18.6 +13.8 74 +20 +25 тепло 1012.2 988.0
С 1 35 км 6/3 450 м
[Sc Ac trans Ci fib]
+19.2 +13.1 68 +22 +29 комфорт 1012.0 987.9
СВ 2 50 км 5/4 1470 м
[Cu hum Ac trans Ci fib]
+20.1 +13.1 64 +23 +31 комфорт 1012.1 988.1
В 2 50 км 6/5 1470 м
[Cu hum Ac trans Cs]
+21.7 +13.0 58 +24 +32 комфорт 1012.0 988.1
В 2 50 км 8/5 1470 м
[Sc diur, vesp Cs]
+22.7 +12.9 54 +26 +33 жарко 1011.8 988.0
ЮВ 2 50 км 6/3 1470 м
[Cb cap Ac trans Ci ing]
+23.8 +12.7 50 +26 +35 жарко 1011.0 987.3
ЮВ 3 50 км осадки на расстоянии 9/4 1470 м
[Cb cap Ac cast Ci ing]
+23.1 +13.0 53 +26 +30 жарко 1010.9 987.1
В 3 50 км 8/4 1500 м
[Sc diur, vesp Ac cast Ci ing]
+24.8 +15.2 55 +28 +31 жарко 1009.7 986.1
В 3 50 км 6/3 1500 м
[Sc diur, vesp Ac cast Ci ing]
+24.6 +13.8 51 +27 +30 жарко 1009.5 985.9
В 2 50 км 8/3 1500 м
[Cu hum Ci ing]
+24.0 +14.6 56 +27 +29 жарко 1009.4 985.7
В 3 50 км 8/3 1500 м
[Cu med, cong Ac trans Ci ing]
+23.2 +14.8 59 +27 +28 душно 1009.4 985.7
В 2 45 км 6/1 1500 м
[Cu med, cong Ac trans Ci ing]
+22.1 +14.8 63 +25 +26 комфорт 1009.7 985.9 +16.4 +25.0
В 2 40 км 5/1 1500 м
[Cb cap Ac trans Ci ing]
+20.2 +14.1 68 +23 +23 комфорт 1010.1 986.1
В 1 40 км 8/3 1500 м
[Sc Ac trans Ci ing]
+19.0 +14.4 75 +21 +21 комфорт 1010.8 986.7
СВ 3 40 км 5/0
[Ci ing]
+18.5 +14.5 78 +19 +19 тепло 1010.6 986.5
СВ 2 н/о н/о +18.5 +15.0 80 +20 +20 тепло 1010.7 986.6
В 2 н/о н/о +18.1 +14.5 79 +19 +19 тепло 1010.7 986.5
В 1 40 км 6/0
[Ac trans Ci fib]
+17.5 +14.3 81 +19 +19 тепло 1010.5 986.3
СВ 1 н/о н/о +16.6 +13.8 84 +17 +17 тепло 1010.6 986.3
ЮВ 1 н/о н/о +16.0 +13.2 83 +17 +17 тепло 1010.3 986.0
ЮВ 2 н/о н/о +15.7 +13.1 85 +16 +16 тепло 1010.0 985.6
ЮВ 3 н/о осадки н/о +16.3 +13.7 85 +16 +16 тепло 1009.9 985.6 0.0
В 2 15 км слаб. дождь 10/10 570 м
[Cu Sc]
+15.9 +15.0 94 +16 +16 тепло 1009.8 985.5 2
ЮВ 3 15 км дождь 10/10 240 м
[Cu Sc]
+16.7 +15.8 94 +16 +16 тепло 1009.9 985.7 +15.5 +22.1 2
ЮВ 4 17 км {дождь} 10/10 240 м
[Sc]
+17.0 +15.9 93 +17 +17 тепло 1010.2 986.0 0.0
В 3 17 км 10/10 300 м
[Sc]
+18.3 +16.5 89 +19 +19 тепло 1010.0 985.9
В 4 25 км {дождь} 10/10 400 м
[Sc]
+19.0 +16.1 83 +20 +20 тепло 1009.6 985.6 0.0
В 4 25 км 10/10 500 м
[Sc]
+20.2 +16.7 80 +23 +23 комфорт 1008.9 985.0
В 4 25 км 10/10 600 м
[Sc]
+20.4 +16.7 79 +24 +24 комфорт 1008.7 984.8
В 6 20 км {дождь} 10/5 700 м
[Cu med, cong Ac trans]
+22.0 +17.2 74 +26 +28 душно 1007.5 983.8 0.0
В 6 15 км 10/10 750 м
[Sc]
+21.9 +16.7 72 +26 +26 душно 1007.1 983.4
В 5 20 км слаб. ливневой дождь 10/10 750 м
[Cb cap]
+21.3 +16.7 75 +25 +25 комфорт 1006.6 982.8 0.0
В 6 20 км в посл. час ливневой дождь 9/4 930 м
[Sc As op]
+22.2 +17.2 73 +27 +27 душно 1005.5 981.8 0.0
ЮВ 5 20 км 9/6 960 м
[Sc As op Ci fib]
+22.2 +16.5 70 +26 +27 душно 1005.4 981.7
ЮВ 5 20 км 9/3 900 м
[Cu med, cong Ac trans Ci ing]
+21.8 +16.6 72 +26 +26 душно 1004.8 981.1
В 4 20 км {ливн. дождь} 10/9 1500 м
[Sc Ac As Ci ing]
+21.2 +15.3 69 +24 +24 комфорт 1004.2 980.5 +16.6 +22.4 0.0
В 5 7000 м ливневой дождь 10/4 1050 м
[Cb cap]
+20.8 +16.7 77 +24 +24 комфорт 1004.1 980.3 0.8
ЮВ 2 {14} 10 км слаб. ливневой дождь 10/9 1140 м
[Cu Sc Ac As Ci ing]
+16.5 +15.2 92 +17 +17 по сезону 1004.5 980.4 0.9
ЮВ 3 {14} 35 км {ливн. дождь} 10/6 300 м
[Cu Sc Ac trans Ci fib]
+16.1 +15.0 93 +16 +16 по сезону 1005.7 981.5 2
Ю 3 н/о н/о +16.0 +14.6 91 +16 +16 тепло 1006.7 982.5
З 3 н/о н/о +15.8 +13.5 86 +15 +15 по сезону 1007.5 983.2
ЮЗ 3 {14} н/о туман на расстоянии {ливн. дождь, морось} н/о +14.8 +12.3 85 +14 +14 по сезону 1007.8 983.4 2
З 4 н/о н/о +14.8 +11.5 81 +14 +14 тепло 1008.2 983.8 0.0
З 5 н/о н/о +15.1 +10.3 73 +14 +14 тепло 1007.8 983.4 0.0
З 7 {19} н/о н/о +15.2 +9.7 70 +13 +13 по сезону 1007.8 983.4 0.0
З 9 {18} н/о н/о +15.5 +8.8 64 +14 +14 тепло 1008.2 983.8
З 8 {15} 70 км 9/9 1500 м
[Sc]
+15.7 +8.7 63 +14 +14 тепло 1008.4 984.1
З 7 {19} 70 км в посл. час дождь {морось} 9/9 2000 м
[Sc]
+16.2 +9.4 64 +15 +15 по сезону 1009.1 984.8 +14.7 +21.3 2
З 4 {15} 60 км в посл. час дождь 10/10 2000 м
[Sc]
+16.1 +10.0 67 +15 +15 тепло 1009.7 985.4 0.0
З 7 {14} 60 км в посл. час дождь 9/9 2000 м
[Sc]
+18.6 +10.7 60 +18 +19 тепло 1010.0 985.9 0.0
З 7 {15} 70 км {дождь} 9/5 1200 м
[Cu Sc Ac lent Ci fib]
+18.6 +10.4 59 +18 +20 тепло 1010.3 986.2 0.0
З 5 {13} 70 км 9/6 1200 м
[Cu Sc Ac trans Ci fib]
+21.1 +11.7 55 +23 +25 комфорт 1010.4 986.5
З 6 70 км 9/9 1300 м
[Cu med, cong]
+21.3 +11.3 53 +23 +24 комфорт 1010.5 986.6
З 5 {15} 70 км {дождь} 9/8 1000 м
[Cu Sc Ac lent]
+19.9 +11.1 57 +21 +22 комфорт 1010.8 986.8 0.0
З 6 70 км 6/5 1300 м
[Cu Sc Ac cuf]
+22.0 +11.7 52 +24 +27 комфорт 1010.1 986.2
СЗ 4 60 км 5/4 1380 м
[Cu hum Ac cuf]
+22.2 +11.3 50 +24 +28 комфорт 1009.7 985.9
З 5 60 км 4/3 1380 м
[Cu hum Ac cuf Ci fib]
+22.6 +11.3 49 +25 +27 комфорт 1009.5 985.7
СЗ 5 70 км 5/4 1500 м
[Cu med, cong Ac cuf]
+21.9 +11.9 53 +24 +25 комфорт 1009.7 985.8
СЗ 2 70 км слаб. ливневой дождь 8/8 1380 м
[Sc Ac lent]
+21.1 +12.2 57 +23 +23 комфорт 1010.4 986.5 0.0
С 2 70 км {ливн. дождь} 5/1 1500 м
[Sc Ac lent]
+19.7 +12.2 62 +22 +22 комфорт 1010.9 986.8 +15.9 +22.9 0.0
СЗ 2 70 км 3/0
[Ac lent]
+17.2 +12.5 74 +18 +18 по сезону 1011.6 987.3
З 4 50 км 3/0
[Ac trans]
+16.7 +11.4 71 +16 +16 по сезону 1012.1 987.8
З 4 50 км 1/0
[Ac trans]
+16.3 +10.6 69 +16 +16 по сезону 1012.4 988.0
З 4 н/о н/о +16.3 +10.4 68 +16 +16 по сезону 1012.8 988.4
З 5 н/о н/о +17.1 +10.7 66 +16 +16 тепло 1012.8 988.5
З 6 50 км 9/0
[Ac trans]
+16.5 +11.0 70 +15 +15 тепло 1013.1 988.7
З 6 н/о н/о +16.2 +10.8 70 +15 +15 тепло 1013.2 988.8
З 5 н/о н/о +16.0 +10.5 70 +15 +15 тепло 1013.4 989.0
З 6 н/о н/о +15.9 +10.5 70 +15 +15 тепло 1013.9 989.4
З 5 н/о н/о +15.8 +10.7 72 +15 +15 тепло 1014.6 990.1
СЗ 4 55 км 9/5 1020 м
[Cu Sc Ac trans Ci fib]
+16.4 +10.9 70 +16 +16 тепло 1014.8 990.4
З 3 55 км 9/3 1020 м
[Sc Ac trans Ci sp]
+16.5 +11.4 72 +16 +18 тепло 1015.5 991.1 +15.7 +19.7
СЗ 4 55 км 9/1 1020 м
[Cu Sc Ac trans Ci sp]
+18.9 +11.9 64 +20 +22 тепло 1015.5 991.3
СЗ 4 60 км 6/1 1170 м
[Cu med, cong Ac trans Ci sp]
+20.0 +11.7 59 +22 +27 комфорт 1015.2 991.1
СЗ 2 60 км 6/3 1080 м
[Cu med, cong Ci sp]
+20.9 +11.8 56 +24 +33 комфорт 1015.2 991.1
СЗ 2 65 км 9/4 1080 м
[Cu med, cong Ci sp]
+21.3 +10.8 51 +23 +32 комфорт 1014.8 990.8
С 3 65 км 8/4 1260 м
[Cu med, cong Ci sp]
+22.0 +10.5 48 +24 +32 комфорт 1014.7 990.7
С 3 65 км 8/3 1440 м
[Cu med, cong Ac trans Ci sp]
+23.3 +10.0 43 +25 +31 комфорт 1014.3 990.4
З 5 65 км 9/3 1500 м
[Cu med, cong Ac trans Ci sp]
+23.2 +11.6 48 +26 +29 жарко 1014.0 990.1
СЗ 2 65 км 9/1 1500 м
[Cu med, cong Ac trans Ci sp]
+23.6 +9.6 41 +25 +30 комфорт 1013.4 989.6
С 1 65 км 9/1 1500 м
[Cu med, cong Ac trans Ci sp]
+23.7 +10.0 42 +25 +29 комфорт 1013.3 989.5
СЗ 1 70 км 9/1 1500 м
[Cu med, cong Ac trans Ci sp]
+23.7 +10.0 42 +25 +27 комфорт 1013.1 989.3
С 2 70 км 9/3 1500 м
[Cu med, cong Ac trans Ci sp]
+22.7 +10.2 45 +25 +25 комфорт 1013.3 989.4
СВ 3 70 км 9/9 1500 м
[Cu Sc Ac trans Ci sp]
+22.0 +10.2 47 +24 +24 комфорт 1013.7 989.7 +16.5 +24.0
СВ 2 60 км 9/6 1500 м
[Cu Sc Ac trans Ci sp]
+20.3 +11.2 56 +23 +23 комфорт 1014.4 990.3
В 1 15 км 9/8 1500 м
[Sc Ac trans Ci sp]
+19.4 +11.9 62 +22 +22 комфорт 1015.2 991.0
Местоположение метеостанции Вена (Австрия): широта 48.25 долгота 16.37 высота над уровнем моря 200 м.
В архиве по умолчанию представлена погода в Вене за последнюю неделю. Архивные данные за месяц целиком и за предыдущие месяцы, начиная с января 2011 года, Вы можете получить, выбрав интересующий диапазон дат из раскрывающегося списка и нажав кнопку "Найти!".
*Определитесь, кто Вы:
Внимание! Время в таблицах - всемирное. Для получения местного времени необходимо прибавить поправку, которая равна 1 ч.
Некоторые строки с данными для отдельных станций могут быть выделены курсивом. Это означает, что фактические данные отсутствуют по различным причинам, а приведенные значения являются расчетными модельными данными для данного пункта наблюдений.
Смотрите также архив погоды в соседних городах и на ближайших метеорологических станциях:
Партнеры нашего сайта:      
Пояснения к столбцам:
  • Ветер - указаны скорость ветра в м/с - средняя за 10 мин, порывы в срок и между сроками (в фигурных скобках) и направление, откуда дует ветер: С - северный,
  • СВ - северо-восточный, В - восточный, ЮВ - юго-восточный, Ю - южный, ЮЗ - юго-западный, З - западный, СЗ - северо-западный.
  • Видимость - горизонтальная дальность видимости в метрах или километрах. При видимости от 1 до 10 км при отсутствии осадков обычно наблюдается дымка, при ухудшении видимости до 1 км и менее - туман. В сухую погоду видимость может ухудшаться дымом, пылью или мглою.
  • Явления - указаны атмосферные явления, наблюдавшиеся в срок или в последний час перед сроком; фигурными скобками обозначены явления, наблюдавшиеся между сроками (за 1-3 часа до срока); квадратными скобками обозначены град или гололедные отложения с указанием их диаметра в мм.
  • Облачность - указаны через наклонную черту общая и нижняя облачность в баллах и высота нижней границы облаков в метрах; квадратными скобками обозначены формы облаков: Ci - перистые, Cs - перисто-слоистые, Cc - перисто-кучевые, Ac - высококучевые, As - высокослоистые, Sc - слоисто-кучевые, Ns - слоисто-дождевые, Cu - кучевые, Cb - кучево-дождевые. Подробнее классификацию облаков см. в Атласе облаков (PDF).
  • T - Температура воздуха - температура, измеренная на высоте 2 м над землей.
  • Td - Температура точки росы - температура, при понижении до которой содержащийся в воздухе водяной пар достигнет насыщения.
  • f - Относительная влажность воздуха - влажноcть воздуха, измеренная на высоте 2 м над землей.
  • Te - Эффективная температура - температура, которую ощущает одетый по сезону человек в тени. Характеристика душности погоды. При расчете учитывается влияние влажности воздуха и скорости ветра на теплоощущения человека.
  • Tes - Эффективная температура на солнце - температура, которую ощущает человек, с поправкой на солнечный нагрев. Характеристика знойности погоды. Зависит от высоты солнца над горизонтом, облачности и скорости ветра. Ночью, в пасмурную погоду, а также при ветре 12 м/с и более поправка равна нулю.
  • P - Атмосферное давление - приведенное к уровню моря атмосферное давление.
  • Po - Атмосферное давление - измеренное на уровне метеостанции атмосферное давление.
  • Tmin - Минимальная температура - минимум температуры воздуха на высоте 2 м над землей.
  • Tmax - Максимальная температура - максимум температуры воздуха на высоте 2 м над землей.
  • R - Количество осадков - Количество выпавших осадков за период времени, мм. При наведении курсора мыши на число - период времени, за который выпало указанное количество осадков.
  • R24 - Количество осадков - Количество выпавших осадков за 24 часа, мм.
  • S - Снежный покров - Высота снежного покрова, см. При наведении курсора мыши на число - состояние снежного покрова и степень покрытия местности в баллах.